Roseau, MN

9:21 AM CDT on April 30, 2017 (GMT -0500)
Roseau Municipal-Billberg

Weather History for KROX - October, 2011

Change the Weather History Date:

Saturday, October 22, 2011

  Actual Average Record
Temperature  
Mean Temperature 42 °F -  
Max Temperature 60 °F 52 °F 73 °F (1973)
Min Temperature 24 °F 30 °F 12 °F (1969)
Degree Days  
Heating Degree Days 23    
Moisture  
Dew Point 36 °F    
Average Humidity 74    
Maximum Humidity 93    
Minimum Humidity 51    
Precipitation  
Precipitation 0.00 in - - ()
Sea Level Pressure  
Sea Level Pressure 29.96 in    
Wind  
Wind Speed 6 mph (South)    
Max Wind Speed 20 mph    
Max Gust Speed 26 mph    
Visibility 8 miles    
Events Fog , Rain , Thunderstorm    
Averages and records for this station are not official NWS values.
T = Trace of Precipitation, MM = Missing Value Source: NWS Daily Summary

Daily Weather History Graph

Daily Weather History Graph

Search for Another Location

Airport or City:

Trip Planner

Search our weather history database for the weather conditions in past years. The results will help you decide how hot, cold, wet, or windy it might be!

Date:

Astronomy

Oct. 22, 2011 Rise Set
Actual Time 7:53 AM CDT 6:20 PM CDT
Civil Twilight 7:21 AM CDT 6:52 PM CDT
Nautical Twilight 6:44 AM CDT 7:29 PM CDT
Astronomical Twilight 6:08 AM CDT 8:05 PM CDT
Moon 2:28 AM CDT (10/22) 3:58 PM CDT (10/22)
Length of Visible Light 11h 31m
Length of Day
10h 26m
Waning Crescent, 23% of the Moon is Illuminated
Oct 22
Waning Crescent
Oct 26
New
Nov 2
First Quarter
Nov 10
Full
Nov 18
Last Quarter

Hourly Weather History & Observations

Time (CDT) Temp. Windchill Dew Point Humidity Pressure Visibility Wind Dir Wind Speed Gust Speed Precip Events Conditions
12:34 AM 39.2 °F 34.2 °F 35.6 °F 87% 30.03 in 10.0 mi West 6.9 mph - N/A   Clear
12:53 AM 37.4 °F 32.8 °F 35.6 °F 93% 30.03 in 10.0 mi WNW 5.8 mph - N/A   Clear
1:14 AM 37.4 °F - 33.8 °F 87% 30.03 in 10.0 mi Calm Calm - N/A   Clear
1:34 AM 35.6 °F - 33.8 °F 93% 30.03 in 10.0 mi Calm Calm - N/A   Scattered Clouds
2:14 AM 35.6 °F - 33.8 °F 93% 30.04 in 10.0 mi Calm Calm - N/A   Scattered Clouds
2:34 AM 35.6 °F - 32.0 °F 87% 30.05 in 10.0 mi Calm Calm - N/A   Clear
2:54 AM 32.0 °F - 28.4 °F 87% 30.05 in 10.0 mi Calm Calm - N/A   Scattered Clouds
3:14 AM 33.8 °F - 30.2 °F 87% 30.05 in 10.0 mi Calm Calm - N/A   Clear
3:34 AM 30.2 °F - 28.4 °F 93% 30.05 in 7.0 mi Calm Calm - N/A   Scattered Clouds
3:54 AM 30.2 °F - 26.6 °F 86% 30.05 in 2.5 mi Calm Calm - N/A   Mostly Cloudy
4:14 AM 30.2 °F - 28.4 °F 93% 30.06 in 5.0 mi Calm Calm - N/A   Mostly Cloudy
4:34 AM 30.2 °F - 28.4 °F 93% 30.06 in 7.0 mi Calm Calm - N/A   Scattered Clouds
4:54 AM 30.2 °F - 26.6 °F 86% 30.06 in 7.0 mi Calm Calm - N/A   Mostly Cloudy
5:34 AM 30.2 °F - 26.6 °F 86% 30.07 in 7.0 mi Calm Calm - N/A   Scattered Clouds
6:14 AM 28.4 °F - 24.8 °F 86% 30.07 in 0.5 mi Calm Calm - N/A Fog Light Freezing Fog
6:34 AM 28.4 °F - 24.8 °F 86% 30.08 in 0.5 mi Calm Calm - N/A Fog Light Freezing Fog
6:54 AM 28.4 °F - 24.8 °F 86% 30.08 in 2.0 mi Calm Calm - N/A   Mostly Cloudy
7:14 AM 26.6 °F - 24.8 °F 93% 30.08 in 7.0 mi Calm Calm - N/A   Clear
7:34 AM 26.6 °F - 24.8 °F 93% 30.08 in 4.0 mi Calm Calm - N/A   Clear
7:54 AM 26.6 °F - 24.8 °F 93% 30.08 in 0.5 mi Calm Calm - N/A Fog Light Freezing Fog
8:14 AM 24.8 °F - 21.2 °F 86% 30.08 in 0.2 mi Calm Calm - N/A Fog Light Freezing Fog
8:34 AM 26.6 °F - 23.0 °F 86% 30.08 in 0.5 mi Calm Calm - N/A Fog Light Freezing Fog
8:54 AM 28.4 °F - 26.6 °F 93% 30.09 in 4.0 mi Calm Calm - N/A   Clear
9:14 AM 32.0 °F - 28.4 °F 87% 30.08 in 5.0 mi Calm Calm - N/A   Clear
9:34 AM 35.6 °F - 32.0 °F 87% 30.07 in 10.0 mi Calm Calm - N/A   Clear
9:54 AM 39.2 °F - 35.6 °F 87% 30.07 in 10.0 mi Calm Calm - N/A   Clear
10:34 AM 44.6 °F 43.1 °F 42.8 °F 93% 30.05 in 10.0 mi SSE 3.5 mph - N/A   Clear
10:54 AM 46.4 °F 41.5 °F 42.8 °F 87% 30.05 in 10.0 mi SSE 10.4 mph - N/A   Clear
11:14 AM 48.2 °F - 42.8 °F 82% 30.05 in 10.0 mi SSE 9.2 mph - N/A   Clear
11:34 AM 51.8 °F - 42.8 °F 71% 30.04 in 10.0 mi SSE 10.4 mph - N/A   Clear
11:54 AM 51.8 °F - 42.8 °F 71% 30.04 in 10.0 mi South 11.5 mph - N/A   Clear
12:14 PM 53.6 °F - 41.0 °F 62% 30.03 in 10.0 mi South 12.7 mph - N/A   Clear
12:34 PM 53.6 °F - 39.2 °F 58% 30.02 in 10.0 mi South 10.4 mph - N/A   Clear
12:54 PM 55.4 °F - 39.2 °F 54% 30.00 in 10.0 mi South 11.5 mph - N/A   Clear
1:14 PM 55.4 °F - 39.2 °F 54% 29.99 in 10.0 mi South 10.4 mph - N/A   Clear
1:34 PM 57.2 °F - 39.2 °F 51% 29.98 in 10.0 mi South 15.0 mph - N/A   Clear
1:54 PM 57.2 °F - 39.2 °F 51% 29.97 in 10.0 mi South 13.8 mph - N/A   Clear
2:14 PM 57.2 °F - 41.0 °F 55% 29.95 in 10.0 mi South 16.1 mph 20.7 mph N/A   Clear
2:34 PM 59.0 °F - 41.0 °F 51% 29.94 in 10.0 mi South 15.0 mph - N/A   Clear
2:54 PM 59.0 °F - 41.0 °F 51% 29.93 in 10.0 mi South 17.3 mph 21.9 mph N/A   Clear
3:14 PM 59.0 °F - 42.8 °F 55% 29.91 in 10.0 mi SSW 18.4 mph 24.2 mph N/A   Clear
3:34 PM 59.0 °F - 42.8 °F 55% 29.90 in 10.0 mi South 17.3 mph - N/A   Clear
3:54 PM 60.8 °F - 42.8 °F 52% 29.89 in 10.0 mi South 15.0 mph 24.2 mph N/A   Clear
4:14 PM 59.0 °F - 42.8 °F 55% 29.88 in 10.0 mi South 17.3 mph - N/A   Scattered Clouds
4:34 PM 59.0 °F - 42.8 °F 55% 29.87 in 10.0 mi South 16.1 mph - N/A   Clear
4:48 PM 59.0 °F - 42.8 °F 55% 29.86 in 10.0 mi South 15.0 mph 20.7 mph N/A   Clear
5:03 PM 57.2 °F - 42.8 °F 59% 29.85 in 10.0 mi South 15.0 mph - N/A   Clear
5:34 PM 59.0 °F - 42.8 °F 55% 29.83 in 10.0 mi South 15.0 mph 21.9 mph N/A   Scattered Clouds
5:54 PM 57.2 °F - 42.8 °F 59% 29.82 in 10.0 mi South 13.8 mph - N/A   Mostly Cloudy
6:14 PM 57.2 °F - 42.8 °F 59% 29.81 in 10.0 mi South 12.7 mph - N/A   Scattered Clouds
6:34 PM 57.2 °F - 42.8 °F 59% 29.80 in 10.0 mi South 12.7 mph - N/A   Scattered Clouds
6:54 PM 55.4 °F - 42.8 °F 63% 29.79 in 10.0 mi South 16.1 mph - N/A   Scattered Clouds
7:14 PM 55.4 °F - 42.8 °F 63% 29.78 in 10.0 mi South 13.8 mph 20.7 mph N/A   Scattered Clouds
7:34 PM 55.4 °F - 42.8 °F 63% 29.77 in 10.0 mi South 16.1 mph - N/A   Mostly Cloudy
7:54 PM 55.4 °F - 44.6 °F 67% 29.77 in 10.0 mi South 12.7 mph 26.5 mph N/A Rain Light Rain
8:14 PM 53.6 °F - 44.6 °F 72% 29.74 in 10.0 mi South 15.0 mph 21.9 mph N/A Rain Light Rain
8:34 PM 53.6 °F - 44.6 °F 72% 29.73 in 10.0 mi South 19.6 mph 26.5 mph N/A Thunderstorm Mostly Cloudy
8:54 PM 53.6 °F - 44.6 °F 72% 29.73 in 10.0 mi South 17.3 mph - N/A   Scattered Clouds
9:14 PM 53.6 °F - 44.6 °F 72% 29.72 in 10.0 mi South 17.3 mph - N/A   Mostly Cloudy
9:34 PM 51.8 °F - 44.6 °F 76% 29.73 in 10.0 mi SSW 15.0 mph - N/A   Scattered Clouds
9:54 PM 53.6 °F - 44.6 °F 72% 29.73 in 10.0 mi SSW 15.0 mph - N/A   Scattered Clouds
10:14 PM 51.8 °F - 44.6 °F 76% 29.73 in 10.0 mi SW 9.2 mph - N/A   Clear
10:34 PM 51.8 °F - 44.6 °F 76% 29.72 in 10.0 mi SSW 10.4 mph - N/A   Clear
10:54 PM 51.8 °F - 44.6 °F 76% 29.72 in 10.0 mi SW 8.1 mph - N/A   Clear
11:14 PM 48.2 °F - 42.8 °F 82% 29.72 in 10.0 mi SW 8.1 mph - N/A   Clear
11:35 PM 48.2 °F - 42.8 °F 82% 29.72 in 10.0 mi Calm Calm - N/A   Clear
11:54 PM 48.2 °F - 42.8 °F 82% 29.72 in 10.0 mi Calm Calm - N/A   Clear